RH
82 83 85 89 92 93 96 99 101 101 100 100 100 100 100 100 100 100 100 100 100 100 100 100 100 100 99 100 100 100 101 101 101 102 102 100 100 100 100 100 100 100 99 100 100 101 99 99 99 100 100 100 102 106 107 103 100 98 96 92 88 86 87 89 93 99 101 92 78 67 63 66 72 74 75 77 77 76 77 81 84 85 83 80 79
92 91 91 93 96 96 97 99 100 101 101 101 101 101 100 100 100 100 99 100 100 100 100 100 100 100 100 100 100 100 101 101 101 102 102 101 99 99 100 101 100 99 99 100 101 100 98 98 100 100 101 103 107 110 109 103 98 96 94 92 92 93 95 98 101 104 101 84 68 65 69 77 83 82 80 83 84 82 85 91 92 89 86 85 85
103 103 103 102 102 103 103 103 102 101 102 102 102 101 101 100 100 100 100 100 100 100 100 100 101 100 100 100 100 100 100 100 101 101 100 100 100 100 100 100 100 99 100 101 101 98 97 97 100 102 104 107 107 106 103 101 98 96 95 96 98 100 102 104 103 96 84 72 71 77 82 88 90 87 85 86 86 87 93 99 99 95 91 89 89
108 107 106 105 105 106 106 105 104 103 103 103 102 102 101 100 100 100 100 100 100 100 100 100 101 100 100 101 101 100 101 101 101 100 100 100 100 100 100 100 100 101 101 101 99 97 98 100 102 103 103 103 102 101 101 101 99 97 97 99 101 103 105 103 93 79 71 75 85 91 92 94 94 90 87 88 89 93 99 101 99 97 94 93 93
106 108 107 105 104 104 104 104 104 104 103 102 102 101 100 100 100 101 101 100 101 100 100 101 101 100 101 101 100 100 101 101 100 100 101 100 99 100 100 100 101 101 100 98 98 99 101 102 101 100 100 101 101 101 101 100 98 97 98 102 105 104 101 92 78 71 76 87 96 99 98 98 96 92 89 90 95 99 102 101 99 97 94 96 99
90 98 104 106 106 105 103 102 102 102 102 101 101 101 101 100 100 100 100 100 100 100 100 101 100 100 100 100 100 101 101 102 102 102 103 102 100 100 99 98 99 99 99 100 101 101 101 100 100 100 100 100 101 101 102 100 97 97 103 107 105 97 89 80 76 80 89 96 99 100 100 100 98 96 93 94 98 101 101 100 101 100 97 99 102
77 81 89 97 103 106 106 104 102 102 102 101 102 102 101 101 102 101 100 100 100 100 101 101 100 100 100 99 102 103 102 103 104 103 103 102 100 99 98 99 100 100 100 101 101 101 100 101 101 101 100 100 101 102 101 99 99 104 108 104 95 88 85 84 86 90 95 99 100 100 100 100 98 97 98 99 100 101 100 99 100 102 103 105 104
85 83 83 86 92 99 103 104 103 104 103 102 102 102 101 102 102 101 100 100 100 101 102 101 100 99 99 99 100 100 99 100 101 101 102 101 100 99 100 100 100 100 100 100 100 101 100 100 101 100 100 101 101 102 101 99 103 107 102 94 90 90 91 91 91 94 97 100 101 100 101 100 97 98 100 101 101 100 99 99 100 100 102 104 101
101 98 96 95 96 98 101 102 103 104 104 102 102 101 101 101 101 101 101 100 100 100 101 101 100 99 99 99 99 99 98 99 100 101 102 101 101 100 100 100 100 100 100 100 100 101 101 101 100 100 102 101 101 103 103 100 100 99 95 93 95 95 94 93 94 97 99 99 100 101 101 99 99 99 100 100 101 100 98 99 100 98 98 99 95
107 104 102 102 103 102 103 104 104 104 104 104 103 103 103 101 101 103 102 99 100 101 100 101 100 100 100 100 100 99 100 100 100 100 100 101 101 100 99 100 100 100 100 100 100 101 101 101 100 100 103 102 101 103 102 97 95 97 98 98 98 97 98 98 98 99 100 100 102 101 99 99 100 101 100 100 101 100 98 98 98 96 93 90 88
102 104 104 105 103 102 105 106 105 104 103 102 102 102 102 101 102 104 102 100 102 102 101 101 100 100 101 101 100 100 100 101 101 100 101 101 101 100 100 100 100 100 100 100 101 101 101 101 101 101 103 104 102 101 98 95 97 100 100 100 100 100 100 99 100 100 100 100 101 100 99 100 101 102 101 100 101 101 99 96 95 92 86 82 87
88 96 102 106 105 105 107 106 103 102 102 101 102 102 102 101 102 102 100 100 102 101 101 102 101 101 102 101 100 100 100 102 101 100 101 101 101 100 100 100 100 101 101 101 101 101 102 102 101 101 103 103 102 99 97 98 100 100 100 100 101 101 99 99 100 100 100 101 101 100 99 100 102 103 101 100 102 101 98 97 92 85 82 84 88
77 83 91 98 102 105 108 106 102 101 100 99 100 100 101 102 103 103 103 103 102 100 100 101 100 101 101 100 101 101 101 101 101 101 102 101 101 101 100 100 101 101 102 102 100 100 100 100 100 100 101 101 99 98 99 100 101 100 100 101 101 100 99 100 100 100 101 103 101 100 102 101 101 102 101 101 102 100 99 97 88 82 86 89 83
70 74 78 83 88 95 100 102 103 103 102 101 101 99 97 97 97 98 100 102 103 102 103 102 101 102 101 101 102 101 101 101 101 102 102 101 101 102 100 100 100 100 101 101 100 100 100 99 100 100 100 100 99 99 100 100 100 100 101 101 100 100 100 100 100 101 102 101 99 102 104 103 101 102 102 100 100 99 96 88 83 86 91 83 69
65 69 73 75 78 83 88 92 95 98 98 99 99 99 99 99 97 95 94 95 96 98 99 100 101 103 103 104 104 101 101 101 101 101 101 101 101 100 100 102 101 100 100 101 100 100 100 100 101 100 100 100 100 100 100 100 100 100 100 101 100 100 101 100 101 103 102 100 100 102 104 104 103 102 102 101 98 93 86 83 86 89 82 66 54
56 62 66 71 76 80 83 86 88 90 93 94 94 95 98 99 100 100 99 98 97 97 97 97 99 99 99 101 102 101 101 101 100 100 101 101 100 101 104 105 102 100 100 100 100 100 100 100 101 101 100 100 100 100 100 100 100 100 100 101 100 100 101 101 102 102 101 101 102 102 102 103 101 100 101 99 92 85 84 87 86 77 62 50 45
47 51 55 61 67 73 77 82 85 87 89 92 93 94 96 97 98 100 100 101 102 101 99 100 100 101 101 100 100 101 101 101 100 100 102 104 103 103 105 104 101 100 101 100 99 100 100 100 100 100 100 101 101 100 99 100 101 101 101 101 99 100 103 103 101 100 100 101 104 104 101 100 100 101 97 90 84 84 86 83 72 58 48 42 39
43 45 47 50 53 57 62 68 73 78 81 85 87 89 91 93 95 97 99 102 105 103 100 100 100 101 102 101 100 101 102 102 102 101 102 103 102 101 101 101 100 100 100 100 100 101 100 100 100 100 100 101 100 100 100 100 100 101 101 101 100 101 103 103 102 101 102 103 104 101 99 100 101 97 90 84 83 83 79 69 56 47 42 38 34
42 42 44 45 47 49 52 55 59 63 68 72 75 79 82 84 87 91 94 98 101 103 103 103 103 104 104 102 100 100 101 102 102 100 100 101 100 100 101 101 100 100 100 100 100 101 101 100 100 100 100 100 100 100 101 101 101 101 101 102 103 104 103 103 104 103 103 103 101 99 100 101 98 91 85 83 81 76 68 58 48 42 38 34 31
43 42 41 41 41 42 44 47 49 52 56 59 63 67 70 73 77 82 86 90 94 98 102 104 104 106 107 104 103 104 103 103 102 102 102 102 100 101 102 101 100 100 101 101 99 100 100 100 100 100 99 100 100 100 101 102 102 101 101 103 106 106 104 105 106 104 101 100 99 99 100 97 92 87 83 79 74 68 59 50 42 38 35 32 31
44 43 42 40 39 38 37 37 39 41 44 47 51 55 59 63 66 70 73 78 83 89 96 102 105 107 107 106 106 106 105 105 104 103 104 103 101 103 103 101 100 100 101 101 100 100 101 100 100 100 99 101 101 101 103 103 101 103 105 105 107 107 105 104 104 102 100 100 100 99 97 94 90 84 77 72 69 62 53 44 39 35 32 32 34
47 45 43 42 41 40 39 37 36 35 35 36 39 42 46 50 54 58 62 66 71 76 84 91 99 105 107 108 109 107 105 104 102 101 102 102 100 100 101 100 100 99 100 100 100 100 101 102 102 102 102 104 104 103 104 104 103 106 108 107 107 106 103 101 101 101 100 100 99 98 96 92 85 76 71 70 64 55 47 42 38 35 35 36 34
54 52 50 49 47 46 45 43 42 41 39 38 38 37 38 39 41 43 47 50 55 61 66 72 79 87 94 100 104 105 106 107 105 103 103 102 102 103 103 102 101 100 102 103 103 103 103 104 106 105 105 106 107 106 106 107 107 108 108 106 103 101 100 101 101 101 100 99 100 100 95 85 75 71 72 67 57 50 47 42 39 39 41 38 32
53 52 51 51 51 51 51 50 49 48 47 46 45 44 43 42 40 39 38 38 39 42 45 50 55 60 67 74 80 85 91 97 99 99 99 100 102 104 104 102 101 101 103 105 107 107 106 107 109 108 107 108 108 106 107 107 106 104 102 100 99 100 102 103 100 100 101 101 101 96 84 74 72 73 69 59 51 50 49 45 44 45 43 36 30
53 51 49 48 48 48 48 49 49 50 50 50 50 50 50 50 48 47 46 43 41 39 38 38 38 40 43 46 50 55 61 66 71 75 78 80 83 85 86 87 89 91 94 98 100 101 102 104 105 106 106 106 106 105 105 104 101 99 99 99 101 102 102 101 102 105 104 100 94 84 74 72 74 68 59 54 53 53 51 51 50 46 38 34 31
60 57 53 51 49 48 47 46 46 46 47 47 49 50 51 51 52 53 52 51 51 50 48 45 42 40 38 36 36 37 38 41 44 47 51 53 56 59 62 67 72 78 84 89 90 93 98 101 102 104 105 104 103 103 103 100 99 100 100 102 103 104 103 104 106 104 99 90 82 75 74 74 68 60 57 58 56 54 54 55 50 41 36 34 31
63 61 57 54 53 51 50 50 49 49 49 49 49 49 49 49 50 51 51 52 53 55 55 55 53 51 47 44 42 40 38 38 37 36 37 39 40 43 46 52 61 71 76 81 88 97 103 103 101 102 103 102 101 102 102 101 101 101 101 103 106 107 105 103 100 94 87 80 75 76 75 69 61 61 64 62 58 57 57 52 44 38 35 33 30
64 61 57 55 54 54 55 56 56 56 56 56 56 56 55 54 53 52 50 49 50 51 52 53 53 53 52 52 52 52 51 50 47 46 45 43 42 44 45 50 59 67 73 83 96 105 106 103 101 101 101 102 105 105 103 101 100 101 103 103 102 100 97 95 91 85 77 74 76 77 71 64 65 71 69 64 61 59 53 44 39 36 33 31 30
63 59 55 53 53 55 57 60 61 62 63 64 64 65 65 65 64 62 59 57 56 55 54 51 49 48 48 50 52 55 57 58 58 58 56 54 53 51 49 52 58 65 75 88 99 105 106 103 102 102 102 105 106 103 99 99 100 102 100 94 92 94 96 92 85 77 73 76 78 73 68 72 77 75 69 66 63 55 45 40 37 34 32 31 30
63 61 57 55 54 55 56 57 60 62 65 67 68 69 71 73 75 73 70 67 67 67 64 60 55 50 49 50 51 53 55 57 58 60 61 61 60 57 54 54 54 62 81 95 98 102 108 106 100 99 100 102 101 98 98 103 103 97 90 87 93 99 96 85 76 74 78 79 75 72 78 85 82 74 70 67 58 46 40 38 35 33 32 31 30
64 65 63 60 60 60 60 60 60 61 63 66 67 68 70 74 78 81 81 78 75 73 72 68 64 62 61 60 59 58 58 57 58 60 60 59 59 59 59 54 51 65 92 103 98 99 105 104 100 99 100 100 99 100 103 104 98 90 88 93 99 97 86 76 75 79 81 77 76 83 89 85 77 73 69 60 48 42 39 36 34 33 32 31 30
64 68 69 68 69 68 67 65 63 62 61 62 64 65 68 71 76 84 91 91 84 76 73 73 74 76 76 73 69 66 64 61 60 61 62 62 60 61 60 55 56 75 99 106 100 100 102 101 100 101 100 99 101 102 103 99 92 88 91 97 97 87 77 75 79 81 80 82 90 94 87 78 75 72 61 48 43 41 37 35 35 34 32 31 31
68 72 74 75 76 75 72 70 68 66 64 62 62 63 65 67 71 80 92 98 92 80 74 75 80 84 87 85 79 75 71 67 62 62 65 67 66 66 65 62 65 82 99 104 101 101 101 101 100 100 100 100 101 101 99 95 90 89 92 94 89 80 76 79 81 82 86 94 96 89 80 78 74 63 49 44 42 39 36 36 36 34 32 32 31
73 75 76 77 79 78 75 72 70 68 66 63 62 60 60 60 63 71 86 98 97 87 79 79 85 90 95 96 91 84 78 72 65 63 67 71 74 75 73 70 74 87 100 103 101 101 101 100 100 101 100 99 100 100 96 92 90 91 91 88 81 77 80 83 84 89 97 98 90 82 80 77 65 51 45 44 40 37 37 37 34 34 33 32 32
75 74 73 72 71 69 68 67 66 64 61 57 55 55 55 55 57 66 81 95 97 91 85 86 91 96 101 106 106 99 88 78 69 66 68 74 78 80 79 82 89 98 103 103 101 101 100 100 101 101 98 97 99 96 90 88 90 90 87 85 82 81 84 87 91 99 100 92 84 82 79 67 53 46 45 42 39 39 39 36 33 34 34 33 33
73 72 69 65 63 63 63 61 58 54 50 49 50 52 52 50 53 63 77 87 92 91 88 91 97 102 105 110 114 113 105 92 79 71 71 75 80 84 91 98 102 103 103 102 101 100 100 100 100 99 97 98 97 88 82 87 91 87 86 91 90 86 87 93 100 101 93 85 85 82 69 54 48 46 43 40 40 41 38 35 35 35 33 33 33
69 69 66 64 65 66 63 57 50 46 44 45 47 49 48 47 52 61 70 80 87 88 87 92 101 108 111 111 113 116 115 106 91 78 74 77 83 90 99 105 105 103 103 102 101 101 100 99 99 100 100 97 89 80 82 92 95 91 92 95 90 88 95 101 99 93 88 87 84 71 56 49 48 45 42 42 42 40 36 35 35 34 33 34 30
72 72 69 68 69 66 60 54 49 47 45 45 46 46 45 46 52 59 67 77 83 85 89 98 107 110 108 106 108 114 118 114 104 90 80 82 90 99 105 107 105 104 103 101 100 100 99 99 101 98 92 87 85 85 94 101 99 95 94 92 91 97 102 99 91 89 90 86 74 58 50 50 47 44 44 45 43 38 36 36 35 35 35 33 26
75 72 69 69 67 62 57 54 52 49 47 46 46 46 46 48 54 60 67 75 82 89 99 107 109 106 102 102 106 111 112 113 110 98 86 88 98 105 105 104 105 104 102 100 101 100 99 100 98 89 85 90 94 95 99 103 99 93 92 94 99 102 96 88 88 92 88 75 61 52 50 49 46 45 47 46 41 38 36 36 36 36 35 31 23
76 73 71 68 61 55 53 53 51 49 48 48 48 48 49 53 59 65 73 82 92 102 107 106 103 101 102 104 107 107 106 110 113 104 93 96 105 107 103 102 104 103 100 100 101 100 98 97 91 85 90 99 99 96 99 102 98 95 98 102 101 93 85 87 93 91 77 63 54 52 50 48 47 48 48 45 41 38 36 36 37 37 35 29 21
80 77 71 62 54 50 52 54 53 51 51 53 54 54 55 61 70 79 87 95 101 105 106 103 102 104 105 105 105 105 105 109 110 102 95 100 108 107 103 102 102 101 100 102 102 98 93 91 90 91 96 100 98 98 101 100 99 101 103 97 87 83 87 93 92 79 65 57 54 52 50 49 49 50 48 44 40 38 37 37 37 37 34 27 20
85 76 65 55 51 51 54 58 59 56 55 58 60 60 63 71 82 92 100 105 107 108 108 105 102 101 101 102 104 104 104 105 102 99 99 104 108 107 104 103 100 98 98 98 96 92 93 96 98 98 99 99 99 101 104 103 102 100 92 82 80 87 93 91 80 67 60 56 54 51 50 50 52 51 47 42 39 39 38 38 38 37 32 25 19
82 69 60 55 53 53 56 62 65 63 60 60 63 66 71 80 88 95 101 103 103 103 101 99 96 97 101 103 103 102 100 97 96 99 102 103 102 103 103 100 96 94 96 97 96 96 101 103 100 99 101 102 102 105 105 100 92 83 77 79 87 91 89 80 70 63 59 56 53 52 51 52 53 52 46 40 40 40 39 38 39 37 30 22 19
76 64 60 58 56 56 57 62 67 69 68 67 68 71 74 79 84 88 90 90 91 93 94 95 96 98 99 99 96 92 90 90 91 95 99 100 101 103 104 102 100 101 104 103 100 100 102 103 101 102 104 102 98 94 87 77 72 73 80 86 88 85 80 73 67 62 59 56 53 52 52 54 55 51 44 41 42 41 40 41 41 36 27 21 19
72 62 62 63 62 59 59 62 68 73 75 76 77 78 79 81 84 87 91 95 100 103 102 101 99 96 94 92 90 88 87 88 90 91 93 95 96 97 97 97 97 97 98 99 100 102 102 101 97 93 88 81 74 68 62 63 71 80 84 83 81 79 75 71 67 63 59 55 53 52 54 57 56 50 43 41 43 42 42 44 42 35 26 21 18
73 65 69 73 72 66 61 60 62 66 69 72 74 75 78 80 82 85 89 93 95 95 94 92 91 87 83 81 80 78 77 78 79 80 81 82 84 86 89 91 93 95 98 101 101 97 90 81 73 66 60 55 53 53 58 69 79 82 80 79 78 76 73 71 69 64 58 54 53 54 56 58 56 49 43 42 44 44 45 46 44 36 27 20 17
76 70 74 83 87 83 74 65 60 57 57 59 60 61 63 64 65 66 68 69 69 70 71 72 71 69 66 65 66 68 71 74 78 82 84 86 89 93 96 98 101 104 103 97 87 75 66 58 53 49 47 46 49 57 67 77 80 79 78 78 76 75 76 76 70 62 56 54 54 55 58 60 56 48 43 44 45 45 47 48 46 38 28 21 18
79 72 74 82 91 94 89 81 73 67 61 59 59 57 56 56 56 56 57 56 56 56 57 59 60 61 63 67 71 75 78 81 85 90 93 96 98 100 100 103 104 101 93 82 71 62 55 50 46 44 44 47 54 64 74 80 80 79 77 75 75 78 80 77 69 61 56 55 54 55 59 61 56 47 44 45 46 46 48 49 46 38 29 23 20
82 75 74 77 86 93 93 89 84 78 69 62 59 57 55 54 54 53 53 54 53 53 55 60 64 67 70 74 78 82 85 89 94 98 100 100 100 101 103 104 101 92 82 73 65 58 51 46 44 44 46 50 59 69 77 80 80 77 75 75 78 82 82 76 68 61 56 54 55 58 61 61 56 48 45 46 47 47 49 50 45 37 29 23 20
89 80 75 73 77 85 91 91 88 82 74 66 61 58 56 54 52 51 50 50 51 53 56 60 64 67 71 74 79 85 91 98 104 106 104 101 101 103 104 101 92 82 75 69 61 54 48 44 44 46 49 54 62 71 78 79 77 75 74 76 80 83 82 76 67 59 56 55 57 59 62 62 57 49 46 48 48 48 50 51 46 36 28 24 21
94 86 81 76 73 76 84 90 90 86 80 72 65 59 56 54 52 50 49 48 48 50 52 55 59 63 68 73 79 86 93 99 104 107 107 105 104 102 97 89 81 75 70 65 58 51 46 43 43 47 52 58 65 73 78 78 76 74 75 78 80 82 81 76 67 59 56 56 57 60 64 64 58 49 47 49 49 49 51 53 47 38 29 24 21
Wind_Speed
93 93 94 94 94 94 94 94 94 93 93 93 93 93 94 93 93 92 91 91 90 90 89 89 88 87 86 86 86 87 88 88 87 87 86 85 84 84 84 85 85 86 86 86 86 87 87 87 87 88 88 89 90 92 93 94 95 96 96 97 98 99 101 102 102 104 105 107 108 108 108 108 109 110 112 114 117 119 120 121 122 123 125 127 129
90 91 92 93 93 94 94 94 94 94 94 94 94 95 95 94 94 93 92 91 91 91 91 91 90 89 88 87 87 88 89 89 89 88 87 86 86 85 85 85 85 86 86 86 87 88 88 88 88 88 89 89 91 92 93 95 96 97 97 98 99 100 102 103 103 103 106 108 109 109 109 109 111 113 114 116 119 121 121 122 123 124 126 128 130
87 88 89 90 91 92 93 94 94 94 94 95 95 95 95 94 94 93 92 92 92 92 92 91 91 90 89 89 89 89 89 90 90 89 88 88 87 87 86 86 86 86 86 87 88 89 89 88 88 89 89 90 91 92 94 96 97 97 98 99 100 101 103 103 104 104 106 108 110 110 110 112 113 115 116 118 120 121 121 121 122 124 126 128 131
85 86 87 88 89 90 91 92 92 93 94 94 95 95 95 94 94 93 93 93 93 93 92 92 91 91 90 90 90 90 90 90 91 90 90 89 89 88 87 86 86 87 88 89 90 90 89 88 88 89 89 90 91 93 95 97 98 99 100 101 102 103 104 104 105 106 106 107 108 111 112 114 116 118 118 119 120 120 120 120 121 124 127 129 131
84 84 85 86 87 88 89 89 90 91 92 92 93 94 94 94 94 94 94 94 94 93 93 92 92 92 92 91 91 91 91 91 91 91 91 90 89 89 88 88 88 89 90 91 90 90 89 89 89 90 90 91 92 94 96 98 99 101 101 102 104 104 105 106 106 106 105 106 108 111 114 116 118 120 120 119 119 118 118 119 122 125 127 129 131
84 84 84 85 85 86 87 87 89 89 90 91 91 91 92 92 93 93 93 93 93 93 93 93 93 93 92 92 91 91 92 92 92 92 92 92 91 90 90 90 90 90 91 90 89 89 89 90 90 90 91 92 94 96 98 100 101 102 103 104 105 105 106 106 106 105 105 107 109 112 115 117 119 120 121 119 117 116 117 119 122 126 127 129 131
84 84 84 85 85 85 85 86 87 88 88 89 89 90 90 90 91 91 92 92 92 93 93 93 93 93 92 92 92 92 92 93 93 93 94 93 93 92 92 91 91 90 90 89 89 89 90 90 91 92 93 94 96 98 100 101 102 103 104 105 105 105 106 106 105 106 107 109 111 113 115 117 119 119 119 118 116 116 118 119 121 124 126 128 130
84 84 85 85 85 85 85 85 85 86 87 88 88 89 89 89 90 90 91 92 92 93 93 93 93 93 93 92 93 93 93 93 93 94 94 94 93 92 91 91 90 90 89 88 89 89 90 91 93 94 95 96 97 99 100 102 103 104 105 105 104 105 105 106 107 108 109 111 113 114 116 117 119 118 117 116 115 117 120 121 122 124 125 127 130
83 84 85 85 85 85 86 86 86 87 88 88 89 89 89 90 90 90 90 90 91 91 92 92 92 92 93 93 93 93 93 93 93 93 93 93 93 92 91 90 89 89 88 88 89 90 92 94 95 96 97 97 98 100 102 104 104 104 104 103 104 105 106 107 108 110 111 112 114 115 116 118 118 116 115 114 115 118 121 123 124 125 126 127 129
84 84 85 85 85 86 87 87 88 89 90 90 91 91 91 91 91 91 91 91 91 91 91 91 91 91 91 92 92 92 92 92 92 92 92 92 92 92 91 90 90 90 90 90 92 93 95 96 96 97 98 99 101 103 104 104 103 103 102 103 104 106 107 109 110 111 112 113 114 116 117 116 116 115 114 115 117 120 122 124 125 126 127 127 127
87 86 86 86 86 86 87 88 89 90 91 91 92 93 94 94 94 94 93 93 93 93 92 92 92 91 92 91 91 91 91 92 92 92 92 93 93 93 92 92 92 92 93 94 95 96 97 98 99 100 101 102 104 104 103 102 102 101 102 103 105 107 108 109 111 112 113 113 115 117 116 114 114 115 115 116 118 121 123 125 126 126 126 125 123
88 89 89 89 89 89 89 90 91 91 92 92 93 94 94 95 96 96 96 96 96 95 95 95 94 94 94 93 93 93 93 94 94 94 95 95 95 95 95 95 96 96 97 98 99 100 101 102 102 102 103 103 103 102 101 101 101 101 103 105 107 108 109 110 112 112 113 113 114 115 114 113 113 116 117 118 119 121 123 125 126 125 124 123 121
87 89 90 91 92 92 92 92 92 93 93 94 94 95 95 96 97 97 98 99 99 99 99 98 98 97 97 97 97 98 98 98 98 98 99 99 99 99 99 99 99 100 101 102 102 103 103 103 102 101 101 101 101 101 100 101 101 103 104 106 107 108 110 111 112 111 111 112 113 114 114 113 114 117 119 119 120 121 121 123 124 123 121 119 119
84 86 88 90 91 93 93 94 94 95 95 96 97 97 98 98 98 99 99 100 101 101 101 101 101 101 101 101 101 101 101 102 102 102 102 102 102 102 102 102 102 102 102 103 103 103 102 101 100 99 99 99 100 100 101 101 102 103 104 106 107 109 110 111 110 110 111 113 113 113 114 115 116 117 119 119 119 119 119 120 120 118 115 115 117
80 82 85 87 88 90 91 93 94 95 96 97 98 99 100 100 101 101 101 101 102 102 102 103 103 104 104 104 104 104 104 104 104 105 105 105 104 104 104 104 103 103 102 102 101 100 99 99 98 99 100 101 101 102 102 103 103 103 104 106 107 109 110 110 109 110 112 113 113 113 114 115 116 116 117 117 117 117 118 118 115 112 111 113 116
77 79 81 83 85 86 88 90 91 92 93 94 95 97 98 99 101 102 103 103 103 104 104 104 104 105 105 106 106 106 107 107 106 106 107 107 106 105 104 104 103 102 102 101 100 100 99 99 100 101 102 103 104 104 104 103 103 104 105 107 108 109 110 110 110 112 113 113 113 113 113 113 113 113 114 115 115 115 115 113 110 110 111 112 114
73 75 78 80 81 83 85 86 88 89 90 91 92 94 95 96 98 99 101 102 103 104 104 104 105 106 106 106 106 107 107 107 107 107 107 107 107 105 105 104 103 102 102 101 101 101 101 102 103 104 104 105 105 105 104 103 104 105 106 108 109 110 110 111 112 113 113 111 111 111 110 110 110 111 112 113 113 112 109 107 108 110 112 112 111
69 71 73 75 77 80 81 83 85 87 88 90 91 92 93 94 96 96 97 99 100 101 102 103 104 105 105 106 106 106 106 107 107 107 107 107 106 105 104 104 103 102 102 102 102 103 104 104 105 105 105 105 105 105 104 104 105 106 108 109 109 110 111 112 112 111 109 108 108 107 107 107 107 109 111 112 110 107 104 106 109 111 111 111 110
64 66 68 70 72 74 76 78 81 83 85 87 89 91 92 93 94 95 96 97 97 98 99 100 101 102 103 103 104 104 104 105 105 105 105 105 104 102 102 102 102 102 102 102 103 103 104 104 104 104 105 105 105 105 105 105 106 107 108 108 109 110 111 110 109 106 105 104 104 104 104 105 106 108 109 107 104 102 104 108 110 111 110 111 110
59 61 63 64 66 67 69 72 74 76 79 82 85 87 89 91 93 94 95 96 96 97 98 98 99 100 101 101 101 101 102 102 103 103 103 103 102 101 101 101 102 101 102 102 102 103 103 104 104 105 105 105 105 106 106 106 107 107 107 107 107 108 107 105 102 100 100 100 101 101 102 104 106 106 103 101 100 102 107 110 110 110 110 110 109
55 57 59 60 62 63 65 66 68 70 72 75 77 80 83 86 88 90 92 94 95 96 96 97 98 99 99 100 100 100 100 100 101 101 102 102 101 101 101 102 102 102 101 102 102 102 102 103 104 104 104 104 105 105 105 105 105 105 104 103 103 101 99 97 95 95 96 97 98 99 101 103 103 101 98 98 101 105 108 109 110 110 110 110 109
52 54 55 57 58 60 61 63 64 66 67 69 71 73 76 78 81 83 86 88 90 92 93 95 96 97 98 99 99 99 99 99 99 100 100 101 101 101 101 102 102 102 101 101 101 102 102 102 102 102 102 102 102 102 102 101 100 98 97 96 94 92 90 90 90 91 93 94 95 98 99 99 98 96 96 99 104 106 107 109 109 110 110 110 110
51 52 53 55 56 57 59 60 61 62 64 65 67 68 70 72 74 76 78 80 82 84 86 89 91 93 95 96 97 98 99 99 99 99 99 100 100 100 101 101 101 101 101 100 100 100 100 99 99 98 97 97 96 95 94 92 90 88 87 86 84 83 84 85 87 89 90 92 93 95 96 94 93 94 98 102 104 105 106 108 109 110 110 111 112
50 51 52 53 54 56 57 59 60 61 62 63 64 65 67 69 70 72 74 75 76 77 79 81 83 85 87 90 92 93 94 96 96 97 98 98 98 99 99 99 98 97 96 95 94 93 93 92 91 89 87 86 85 83 81 79 79 78 78 77 77 78 80 82 84 86 88 89 91 91 91 90 92 95 99 101 102 103 105 108 109 109 110 112 114
48 50 51 52 53 54 56 57 59 60 61 62 64 65 66 67 68 70 71 72 72 73 75 76 77 78 79 81 83 84 85 87 88 89 90 90 90 90 90 90 88 87 85 84 84 83 82 81 79 78 76 75 73 72 71 71 72 72 71 72 74 76 78 80 81 83 84 86 86 87 88 90 93 96 98 99 101 103 105 107 108 108 110 113 115
47 48 50 50 51 53 54 56 57 59 60 62 63 64 66 67 68 69 70 71 71 72 73 74 74 75 76 76 76 76 77 78 79 79 80 80 80 79 79 78 77 77 76 75 75 74 73 73 71 70 68 66 65 65 66 67 67 67 67 69 71 73 75 77 78 79 81 82 83 85 88 91 94 95 97 99 101 103 104 105 106 108 111 113 114
46 48 49 49 50 51 52 53 55 56 58 59 61 62 64 65 66 68 69 70 70 71 73 73 74 74 74 74 73 73 73 73 73 72 72 72 72 71 71 71 71 71 71 70 69 69 68 67 66 63 61 60 61 62 63 62 62 63 65 67 69 70 72 73 74 76 78 80 83 86 89 91 93 95 97 100 101 102 102 103 106 109 111 112 111
46 48 48 48 49 49 50 51 52 54 55 56 58 59 61 62 63 65 66 67 68 69 71 72 73 73 73 73 72 72 71 71 70 69 68 67 66 66 66 66 67 68 68 67 65 64 64 63 61 59 57 58 58 59 58 59 60 62 63 64 65 67 68 70 73 75 78 80 83 86 88 91 93 96 99 100 101 101 101 104 107 109 110 109 107
46 47 48 47 47 48 48 49 50 51 52 54 55 56 57 59 60 61 62 63 64 65 67 69 70 70 70 70 70 70 70 70 69 67 66 65 63 62 62 62 63 64 64 64 63 61 60 58 56 53 53 54 54 55 56 58 59 59 60 61 62 64 68 71 73 75 78 81 84 86 88 91 94 97 98 99 99 100 102 105 107 108 107 106 103
45 47 48 47 47 47 47 47 48 48 49 50 51 53 54 55 56 58 59 60 60 61 63 64 65 65 65 65 65 66 67 67 66 65 64 63 61 59 58 58 60 59 59 61 60 57 55 53 50 48 49 50 52 53 54 55 56 58 58 59 61 65 69 72 73 75 79 81 83 86 89 92 95 96 96 96 98 101 103 105 106 106 105 102 98
44 46 48 47 47 46 46 45 45 45 46 47 47 49 49 50 52 54 56 57 58 58 60 60 60 60 59 59 59 60 61 62 62 61 61 60 58 56 55 55 55 54 54 56 56 52 50 50 48 46 47 49 50 51 52 54 56 57 58 59 63 67 70 71 74 77 79 81 84 87 90 93 94 93 93 95 98 101 104 105 105 103 102 98 93
43 45 46 45 44 44 45 46 46 46 46 46 46 47 47 47 47 49 51 54 56 57 57 56 55 54 54 54 55 55 56 56 55 55 55 55 53 52 52 52 51 49 48 50 50 48 48 48 47 46 47 49 50 50 52 54 57 58 59 61 65 68 70 72 75 78 80 82 86 89 91 91 90 90 92 95 99 101 103 103 102 101 98 93 89
41 42 42 42 43 44 46 47 48 49 49 49 48 48 47 46 46 45 47 50 53 54 53 51 50 49 49 49 50 51 51 51 50 48 48 49 48 48 48 48 46 44 44 46 47 48 47 47 47 47 49 49 49 50 53 56 59 60 61 63 65 68 70 73 76 78 81 84 87 89 89 88 88 90 94 96 99 100 101 100 99 97 93 89 86
39 40 40 41 43 45 47 49 50 51 51 50 50 49 48 46 44 43 44 47 50 51 49 47 46 45 45 45 45 46 47 48 47 44 42 43 43 44 44 44 42 41 43 45 47 48 47 47 47 48 48 48 50 52 55 58 60 61 62 64 65 68 71 73 76 79 82 86 87 86 85 85 88 91 94 96 98 99 98 97 96 92 88 84 82
37 39 41 43 45 47 48 50 50 50 50 49 48 47 46 45 43 41 42 44 47 48 45 43 42 41 41 41 41 42 43 44 43 41 39 39 39 40 40 39 39 40 42 45 47 47 47 47 47 48 48 49 52 55 57 58 60 61 63 65 67 69 72 74 77 81 84 85 84 82 82 85 89 92 94 96 97 97 97 95 92 87 83 81 79
38 40 43 45 47 49 50 50 49 48 47 46 45 45 44 43 40 39 40 42 44 44 42 39 38 38 37 38 38 39 39 40 39 38 36 36 36 36 36 36 38 40 43 45 46 45 45 45 46 48 49 50 54 57 58 58 59 61 64 66 69 71 73 75 78 82 83 81 79 79 83 86 89 91 93 95 95 94 94 92 87 82 79 78 76
39 42 45 48 49 51 50 49 48 46 45 44 43 42 42 40 37 37 38 39 40 40 38 36 35 35 35 36 36 36 36 36 35 35 34 33 33 33 34 35 38 41 43 43 43 43 44 45 46 48 49 51 54 56 56 56 59 63 65 67 69 71 73 76 79 80 78 75 76 80 84 86 88 91 92 93 93 93 91 87 82 78 76 74 72
40 44 47 49 51 51 50 48 46 45 43 41 39 39 38 36 33 34 35 36 37 36 34 32 31 32 33 34 33 32 32 32 32 31 31 30 30 30 32 35 37 39 40 40 40 42 44 45 46 48 50 52 54 55 55 58 61 64 65 67 69 71 74 77 77 74 72 73 77 81 84 86 88 90 91 91 92 90 87 82 78 76 74 72 69
41 45 48 49 50 49 47 45 43 41 39 37 35 34 33 31 29 29 31 32 32 30 28 27 28 29 30 30 28 27 27 28 28 28 28 27 27 27 30 33 35 36 36 37 39 41 43 45 47 48 49 51 52 54 57 59 61 63 64 67 69 72 74 73 70 68 70 74 78 81 83 85 87 89 89 90 90 87 82 77 75 74 73 70 67
42 46 48 48 47 44 42 40 39 37 36 33 31 28 27 25 24 24 25 26 25 24 23 24 25 26 25 24 24 24 25 25 25 25 25 25 24 26 28 30 32 33 34 36 38 40 43 45 46 46 47 50 52 54 57 59 61 63 65 67 69 71 70 67 64 66 70 75 78 80 82 85 86 87 88 88 87 82 78 74 73 71 70 68 65
43 47 47 45 42 38 36 35 35 34 32 30 27 24 21 19 18 19 20 20 20 20 20 21 21 21 20 20 20 21 21 21 21 22 22 21 22 24 26 28 30 32 33 36 39 40 42 44 44 45 47 50 53 55 57 59 61 62 64 66 67 66 63 61 62 67 71 74 77 79 82 83 85 86 87 86 83 78 74 72 71 69 68 66 64
42 44 43 40 37 34 32 31 31 30 28 26 23 20 17 14 14 14 15 15 15 15 15 15 15 15 16 16 16 17 17 17 16 16 16 17 19 21 24 27 29 31 33 36 37 38 40 42 44 46 49 51 54 55 57 58 60 62 63 64 62 59 57 58 63 67 71 73 76 79 81 82 84 85 85 83 79 74 72 71 69 68 66 64 62
38 39 37 35 33 31 29 28 27 27 25 22 20 17 14 12 11 10 10 10 10 10 9 10 10 11 11 11 11 11 11 11 11 11 12 13 16 20 23 25 27 28 30 32 34 36 39 41 44 46 48 50 52 54 56 58 59 61 61 59 55 53 54 59 64 67 70 73 76 78 80 82 83 83 83 80 75 72 71 70 68 67 64 62 60
33 33 32 32 32 30 28 26 25 24 23 21 19 16 14 12 10 9 7 7 6 7 7 7 8 8 8 8 7 7 7 8 9 9 9 11 13 15 18 21 23 26 28 30 32 35 37 40 42 44 46 48 51 53 55 57 58 57 54 51 49 50 55 59 63 66 70 73 75 77 79 81 82 82 80 76 72 71 70 69 68 66 63 61 59
28 27 27 29 31 30 28 26 25 23 22 21 19 17 15 13 12 11 10 10 10 9 9 9 8 8 7 7 8 8 8 9 9 9 9 9 9 10 11 14 16 20 22 25 28 31 34 37 40 43 46 48 51 53 54 54 53 50 47 45 46 51 55 59 63 66 70 72 75 77 79 80 81 81 78 73 70 69 69 69 68 66 63 61 58
24 22 22 25 28 29 28 27 26 25 24 22 21 19 18 16 15 14 13 12 12 12 12 12 12 11 11 11 12 12 13 13 12 12 12 11 11 11 12 14 16 19 22 25 29 32 35 38 41 44 46 48 50 51 51 49 46 43 41 42 46 51 55 59 63 66 70 72 75 77 78 80 80 79 76 71 69 68 68 68 67 66 64 61 59
19 18 17 20 23 25 26 26 26 27 27 27 26 25 24 22 21 20 19 18 17 17 17 17 16 15 15 15 15 15 15 14 14 13 13 13 14 15 16 18 20 23 25 28 31 34 36 39 41 44 46 47 48 47 45 42 39 37 39 42 47 51 55 59 63 67 70 72 75 76 78 79 79 78 74 70 68 67 67 67 66 65 64 61 59
16 14 13 14 17 19 21 22 23 24 25 25 25 25 25 24 24 23 22 20 19 18 18 17 16 16 16 16 16 15 15 14 14 14 15 16 17 18 19 20 21 23 26 29 32 35 37 39 42 43 44 44 43 41 38 36 34 35 38 43 47 51 55 59 63 67 70 72 75 77 78 78 79 76 72 68 67 66 66 66 65 64 63 61 60
15 13 10 9 10 13 15 16 18 19 20 21 22 22 22 22 22 21 21 19 18 18 18 17 17 17 16 16 16 16 16 16 17 17 17 17 17 17 18 19 21 23 26 29 32 35 38 40 41 42 42 41 39 36 33 32 33 35 39 43 48 52 56 60 64 67 70 72 75 77 78 78 78 75 71 68 66 66 65 65 64 63 61 60 59
15 12 10 7 5 7 10 11 13 14 15 17 18 19 19 20 20 20 19 19 18 18 18 18 17 17 18 18 18 18 18 18 18 18 18 17 17 17 18 19 21 24 27 30 33 36 39 40 42 42 41 39 36 33 31 31 32 35 39 44 48 52 56 60 64 67 70 72 75 77 78 78 77 75 70 67 65 65 65 64 64 62 60 58 57
16 13 11 8 5 2 5 6 8 9 11 12 14 15 16 16 17 17 17 18 18 18 18 18 18 19 19 19 19 19 19 19 18 18 17 17 17 18 19 21 23 26 29 32 34 37 39 41 42 42 41 38 34 32 30 31 32 36 40 44 48 52 56 60 64 67 70 73 75 77 78 78 77 74 69 66 65 64 64 64 64 62 60 58 56
Wind_Direction
247 247 248 249 250 251 252 253 254 255 256 257 258 259 260 261 262 263 264 265 266 267 267 268 268 268 268 269 270 270 272 273 274 275 276 276 277 278 278 279 280 281 282 283 283 284 284 285 287 287 289 290 290 291 292 293 294 295 297 298 299 300 301 302 302 302 302 303 303 304 305 306 306 306 307 307 307 307 308 308 309 309 309 309 310
247 248 249 249 250 251 252 253 254 255 255 256 257 258 259 260 261 262 263 264 265 265 266 266 267 267 267 268 268 269 270 271 273 274 275 276 276 277 277 278 279 280 282 282 282 283 284 286 287 288 289 289 290 291 292 293 294 295 297 298 299 300 300 301 301 301 302 303 304 305 305 306 306 306 307 307 307 307 308 309 309 309 309 309 310
248 248 249 249 250 251 252 252 253 255 255 256 257 258 259 260 261 261 262 262 263 263 264 265 266 266 267 267 267 268 269 270 272 273 274 275 276 276 277 278 279 280 281 281 282 284 285 287 287 288 288 289 289 290 292 293 294 296 297 298 299 299 300 300 300 301 302 303 304 305 305 305 305 305 306 306 307 308 309 309 309 309 309 309 310
247 247 248 249 250 251 251 252 253 254 255 256 257 258 258 259 260 260 261 261 262 262 263 264 265 266 266 266 267 267 268 269 271 272 273 274 275 276 277 278 278 279 280 281 283 285 286 287 287 287 288 288 289 290 292 293 294 296 297 297 298 299 299 299 300 301 302 303 304 304 304 304 304 305 305 306 307 308 308 309 308 308 309 309 310
246 247 248 248 249 250 251 252 253 254 255 255 256 257 258 259 259 260 260 261 262 262 263 263 264 265 265 266 267 268 269 270 271 272 274 274 275 276 276 277 278 279 281 283 284 286 286 286 286 286 287 288 289 290 292 293 294 296 296 297 298 298 298 299 300 301 302 303 303 303 303 303 304 304 305 306 307 308 308 308 308 308 309 309 309
247 247 247 248 249 250 251 252 253 254 255 256 256 257 258 258 259 259 260 260 261 262 262 263 264 264 265 266 267 268 269 270 271 272 273 274 274 275 276 277 278 280 282 283 284 284 284 285 285 285 286 287 289 291 292 293 294 295 296 296 297 297 298 299 300 301 302 302 302 302 302 303 303 304 305 306 307 307 307 307 307 308 308 309 309
248 248 249 249 249 250 251 252 253 254 255 256 257 257 258 258 259 259 260 260 261 262 262 263 264 265 265 267 267 268 269 270 271 272 273 273 274 275 276 277 279 280 281 282 282 283 283 284 284 285 286 288 290 291 292 293 294 295 295 296 297 297 298 299 300 300 301 301 301 302 302 302 302 303 304 306 306 306 306 306 306 307 308 308 308
250 250 250 250 251 251 251 252 253 254 255 256 256 257 258 259 260 260 261 261 262 263 263 264 265 265 266 267 267 268 269 270 271 272 273 274 275 275 276 277 278 279 280 281 281 281 282 283 283 285 287 288 290 291 292 293 294 294 295 296 297 297 298 298 299 300 300 301 301 301 301 301 302 303 304 305 306 305 305 305 306 306 307 307 307
251 251 251 252 252 252 253 253 254 254 255 255 256 257 258 259 260 261 262 262 263 264 264 265 266 266 267 268 268 269 270 271 271 272 273 273 274 275 276 277 278 278 279 280 280 280 281 283 284 286 287 289 290 290 291 292 294 294 295 296 296 296 297 298 299 299 300 300 301 301 301 301 302 303 304 304 304 304 304 305 305 306 306 307 307
251 251 252 253 253 254 254 255 255 256 256 257 257 257 258 258 259 260 261 262 263 264 265 266 266 267 268 268 269 270 270 271 271 272 272 273 274 274 275 276 277 278 278 279 280 280 282 283 285 286 287 288 289 290 292 293 294 294 294 295 295 296 296 297 298 299 300 300 300 300 300 301 302 303 303 303 303 303 304 304 305 306 306 307 308
251 251 252 253 254 254 255 255 255 256 256 257 258 258 259 259 259 259 260 260 261 262 263 264 265 266 267 268 269 269 270 270 271 271 272 273 273 274 275 276 277 277 278 279 280 281 282 283 285 286 287 289 290 291 292 292 293 293 293 294 294 295 296 297 298 299 299 299 299 299 300 301 302 302 302 303 303 303 304 304 305 306 307 308 309
253 253 253 253 253 254 255 255 256 256 257 257 258 258 259 259 260 260 260 260 260 261 262 263 264 265 266 267 267 268 269 269 270 271 272 273 274 274 275 276 277 278 278 279 280 281 282 283 285 286 288 289 290 291 291 291 291 292 293 293 294 295 296 297 297 298 299 298 298 299 300 301 301 301 302 302 303 303 304 305 305 306 308 309 309
254 254 254 254 254 254 255 255 255 256 257 257 258 258 259 259 260 260 260 260 261 261 262 262 263 264 265 266 267 268 269 270 270 271 272 273 274 275 276 276 277 278 279 280 281 282 283 284 286 287 288 288 289 289 290 290 291 291 292 292 293 294 295 296 297 298 298 297 298 299 300 301 301 301 301 302 303 303 304 305 306 307 309 309 308
254 255 255 255 256 256 256 256 256 256 256 257 257 258 259 259 260 260 261 261 261 262 262 263 263 264 265 266 267 268 269 270 271 272 272 273 274 275 276 277 278 279 280 281 282 283 284 285 286 286 286 287 287 288 288 289 290 291 291 292 292 294 295 296 297 297 297 297 298 299 300 300 300 301 301 302 303 304 304 305 306 308 308 308 308
254 255 255 256 256 257 257 258 258 258 258 258 258 258 258 259 260 260 261 262 262 263 263 264 264 265 265 266 267 268 269 270 271 272 273 274 275 276 277 278 279 279 280 281 282 282 283 284 284 284 285 285 286 287 288 289 289 290 290 291 292 293 294 295 296 296 296 297 298 299 299 299 300 301 301 302 303 304 305 306 307 308 307 307 308
256 256 256 256 257 257 257 258 258 259 259 259 259 259 259 259 259 260 260 261 262 263 263 264 265 266 266 267 267 268 269 270 271 272 273 274 275 276 277 278 278 279 279 280 281 281 281 281 282 282 283 284 285 286 287 288 288 288 289 290 291 292 293 294 295 295 296 297 298 298 299 299 300 301 302 302 303 304 306 307 307 306 306 307 308
259 258 258 258 258 258 258 258 259 259 259 260 260 260 260 260 260 261 261 261 262 262 263 264 264 265 266 267 267 268 269 270 271 271 272 273 274 275 276 276 277 277 278 278 279 279 279 280 280 281 282 283 284 285 286 286 286 287 288 289 290 291 293 293 294 295 296 297 297 298 299 300 301 301 301 302 304 305 306 306 305 306 307 309 309
263 262 262 261 261 260 260 260 260 260 261 261 261 261 261 261 261 262 262 262 262 263 263 264 264 265 266 266 267 268 269 269 270 271 271 272 273 274 274 275 275 275 276 276 277 277 278 279 280 281 281 282 283 284 284 285 285 286 287 288 290 291 292 293 294 295 296 297 297 298 299 300 301 301 301 303 305 306 306 305 306 307 309 309 310
267 266 266 265 265 264 264 263 263 263 263 262 263 263 263 263 263 263 263 263 263 263 264 264 265 265 265 266 267 267 268 268 269 270 270 271 272 272 272 273 273 273 274 274 275 276 277 278 279 279 280 281 282 283 283 284 285 286 287 289 290 291 292 293 294 295 296 297 298 299 300 300 300 300 303 305 306 306 306 306 308 309 310 311 312
269 269 269 268 268 268 267 267 266 265 265 265 264 264 264 264 264 264 264 264 264 264 264 264 265 265 265 266 266 267 267 268 268 269 270 270 271 271 271 272 272 273 273 274 275 275 276 277 278 278 279 280 281 282 283 283 285 286 288 289 290 291 292 293 294 295 296 297 298 299 299 299 300 302 305 306 307 307 307 308 309 310 311 313 315
270 270 269 269 269 269 269 268 268 267 267 266 266 266 265 265 265 265 265 265 265 264 264 265 265 265 265 266 266 266 267 267 268 269 269 270 270 271 271 271 272 273 274 274 275 275 276 277 277 278 279 280 281 281 282 283 285 286 288 289 289 291 292 294 295 295 296 297 297 298 298 299 302 305 307 308 308 309 309 310 311 312 314 315 317
274 273 272 272 271 271 270 269 269 269 268 268 268 267 267 266 266 266 266 265 265 265 265 265 265 265 265 265 266 266 266 267 267 268 269 269 270 270 271 271 272 273 274 274 275 275 276 277 277 278 279 279 280 281 282 284 285 287 287 288 290 291 293 294 294 295 295 296 297 298 299 302 304 307 308 309 309 310 311 312 313 315 316 317 318
279 278 278 277 276 275 274 273 272 271 271 270 269 269 269 268 268 268 267 267 266 266 265 265 264 264 264 265 265 265 266 266 267 267 268 269 269 270 271 271 272 273 274 274 275 275 276 277 277 278 279 280 281 282 284 285 286 287 288 289 291 292 293 293 293 294 295 296 297 299 301 304 306 308 309 310 311 311 313 314 315 316 317 318 319
281 281 280 279 279 279 278 277 276 275 274 273 272 271 271 270 270 269 269 269 268 268 267 266 266 265 265 264 264 264 265 265 266 266 267 267 268 269 270 271 272 273 274 275 275 276 277 277 278 279 281 282 283 285 286 287 287 288 289 290 291 291 291 292 292 294 295 297 299 301 304 306 308 309 310 310 312 313 315 316 316 317 317 318 318
284 284 282 281 281 280 279 278 278 277 276 276 275 274 273 273 272 272 271 271 270 270 269 269 268 268 267 267 266 266 266 266 266 266 267 267 268 269 270 271 273 274 274 275 276 277 278 279 281 283 284 285 287 288 288 288 289 290 290 290 290 290 291 292 293 295 297 299 301 303 306 308 309 310 310 312 314 315 316 316 316 317 318 318 318
288 287 286 285 284 283 282 281 279 278 277 277 276 275 275 275 274 274 274 273 273 273 272 271 271 271 270 270 269 269 269 269 269 269 269 270 270 270 271 273 274 275 276 277 278 279 281 283 284 286 287 289 289 289 288 289 289 289 289 289 289 290 292 294 296 298 300 302 303 306 308 309 310 311 312 314 315 316 316 316 316 317 318 318 318
290 290 289 289 289 287 286 284 283 281 280 279 278 277 276 276 275 275 274 274 274 274 274 273 273 273 273 272 272 272 272 272 272 272 272 273 273 273 274 275 276 277 278 279 281 283 284 285 287 289 290 290 289 288 288 288 288 288 289 290 291 293 295 296 298 300 302 304 306 308 310 310 311 313 314 315 316 316 316 316 317 317 318 318 318
291 291 292 292 292 291 289 287 285 283 282 281 280 279 278 278 277 276 275 275 274 274 273 273 273 273 273 274 274 274 274 274 274 274 274 275 275 275 276 276 276 277 278 280 281 282 283 285 288 289 288 286 285 285 286 287 288 290 291 292 293 295 297 299 300 302 304 306 309 310 311 312 314 315 316 316 315 315 316 317 317 317 317 318 319
292 293 293 294 294 292 290 288 287 285 284 283 282 281 281 280 280 279 278 277 276 275 274 273 273 272 272 272 273 273 274 274 275 275 275 275 275 275 275 275 275 275 276 277 278 279 281 285 287 286 283 283 284 285 287 289 291 291 292 294 296 298 299 300 302 304 307 309 311 311 313 314 315 316 316 315 315 316 317 317 317 317 318 319 320
294 296 297 298 297 295 293 291 290 288 287 286 285 284 282 282 281 280 280 279 278 277 276 275 275 275 274 273 272 271 271 272 273 273 274 274 275 275 274 273 273 273 273 274 275 277 280 283 284 283 282 284 285 287 289 291 291 292 294 296 298 299 300 302 305 308 310 311 312 314 315 316 316 315 315 315 315 317 317 317 318 318 319 320 321
298 301 302 303 302 300 298 297 294 293 291 289 288 286 284 282 280 280 280 280 278 277 277 277 277 277 277 275 274 272 271 270 270 271 272 273 273 273 272 272 271 271 270 271 275 278 279 280 283 284 284 285 287 289 290 290 290 293 295 297 298 299 302 305 308 311 312 313 314 316 316 315 315 314 315 315 316 317 317 318 319 319 320 321 322
303 305 306 305 304 303 302 301 299 298 296 294 292 290 287 284 281 279 279 279 278 277 278 279 279 279 278 276 275 274 273 272 270 269 269 270 271 271 270 270 270 268 267 269 274 277 277 278 281 283 283 285 288 288 288 288 291 294 296 297 299 302 305 308 311 312 314 315 316 316 315 315 314 314 315 317 317 318 318 319 320 321 321 322 322
308 307 306 305 305 304 304 303 302 301 300 298 296 293 291 287 284 280 278 278 278 278 278 279 280 280 279 277 276 275 275 274 273 271 269 269 269 268 268 268 267 264 264 266 269 272 273 275 278 280 283 285 287 287 287 289 293 296 298 300 302 305 308 311 313 314 315 316 316 315 315 314 315 316 317 318 318 318 320 320 321 322 323 323 323
308 306 305 306 306 305 305 304 304 302 301 299 297 295 292 289 286 282 279 277 277 278 279 279 280 279 279 278 277 276 276 276 276 274 271 269 267 266 266 266 264 261 260 262 264 267 271 274 277 280 283 286 287 287 289 292 295 298 301 303 306 308 311 313 314 315 316 316 315 315 315 315 316 317 318 318 319 320 321 322 323 323 323 323 324
307 306 306 307 307 307 307 306 304 303 301 300 298 295 292 290 287 283 278 275 276 277 278 278 278 278 279 278 278 277 277 278 278 276 273 269 266 266 266 265 261 257 257 259 262 266 270 274 278 281 284 286 287 288 291 295 298 301 304 306 309 311 312 314 315 316 316 315 315 315 315 316 317 318 319 320 321 322 322 323 324 324 324 324 325
308 309 310 312 313 312 310 308 306 304 303 301 299 296 292 290 286 281 276 274 274 276 277 277 277 278 279 279 279 279 279 280 279 277 273 270 267 266 265 261 255 253 255 257 261 266 271 275 278 281 284 286 288 291 295 298 300 303 306 308 310 311 313 314 315 315 315 315 315 316 316 317 318 319 320 321 323 323 324 324 325 325 325 326 326
313 315 316 317 317 315 313 310 309 308 306 304 301 297 294 291 286 279 275 273 273 275 276 277 277 278 279 279 280 280 280 280 280 278 274 271 267 265 263 257 252 251 255 258 263 268 272 275 278 281 284 287 290 295 299 301 302 305 308 309 311 312 313 314 314 314 314 315 316 317 317 318 320 321 322 323 324 325 325 325 325 325 326 327 327
319 320 320 320 319 317 314 313 311 311 310 308 304 300 297 293 286 278 274 273 274 276 278 279 278 278 279 281 282 282 282 282 280 278 274 271 268 266 262 256 253 254 257 260 264 268 272 274 277 282 286 290 294 299 301 302 304 307 309 311 312 313 313 313 313 314 315 317 317 317 318 320 322 323 324 325 326 326 326 326 326 327 328 328 329
323 323 323 322 320 317 315 313 313 313 313 312 309 304 300 294 286 279 276 276 277 280 281 279 278 279 282 284 285 285 285 284 281 278 274 271 269 265 260 256 255 255 257 260 264 268 272 275 279 285 292 296 297 300 302 304 306 309 311 312 312 312 312 313 314 315 317 318 317 318 320 323 324 325 326 327 327 327 327 327 328 329 329 330 330
326 327 325 323 320 318 316 315 316 317 318 318 315 310 304 297 290 284 281 281 281 281 279 278 280 284 287 289 290 289 288 286 282 278 274 272 270 266 261 257 256 256 257 261 265 270 276 280 284 291 298 300 300 303 306 307 308 310 311 311 311 311 312 314 315 317 318 318 318 320 323 325 327 328 328 328 328 328 328 329 330 331 331 331 331
330 328 325 323 322 321 320 320 322 324 325 325 322 316 309 303 297 292 288 285 283 281 282 285 289 291 292 293 293 291 289 286 282 279 278 278 275 271 266 262 260 259 260 263 267 274 282 287 292 297 301 303 305 307 308 307 308 309 309 310 311 312 313 315 318 319 319 319 321 323 326 328 329 330 330 330 329 329 330 331 332 332 333 332 332
330 327 327 327 328 328 328 328 330 331 333 332 329 324 318 313 307 300 295 293 291 290 291 293 293 293 294 296 296 294 292 290 291 292 293 291 283 275 269 266 265 266 267 270 275 283 292 296 298 300 301 303 304 306 307 307 308 308 308 310 311 313 315 318 319 319 319 321 324 326 328 330 331 331 331 331 330 330 331 333 333 334 334 334 334
330 330 333 337 339 339 338 338 339 340 341 341 339 336 333 329 323 316 309 302 298 296 297 298 300 303 306 308 307 307 307 309 313 316 311 300 288 280 276 276 278 280 282 285 290 296 300 301 301 301 301 302 304 305 306 306 307 307 309 311 312 314 317 320 320 320 322 324 326 329 331 333 333 333 333 332 332 332 333 334 335 335 336 336 336
333 337 345 350 352 351 351 351 350 350 351 353 354 354 354 353 352 348 344 341 340 339 338 338 336 335 335 335 336 339 340 342 343 340 330 317 305 298 294 294 294 294 295 298 299 300 301 302 304 304 304 305 306 305 305 305 306 308 310 311 314 317 320 321 321 322 324 327 329 332 334 335 335 335 334 334 334 334 335 336 336 337 337 338 338
335 344 357 5 6 5 6 8 8 6 6 6 7 9 12 15 18 20 20 22 23 22 21 20 17 15 17 21 23 26 28 28 25 22 15 5 353 340 328 318 311 307 306 306 306 306 307 309 309 309 307 306 305 304 305 306 308 309 310 313 317 321 322 323 324 325 327 329 332 335 336 337 337 336 336 336 336 337 337 338 338 338 339 339 339
335 347 5 17 19 18 20 24 26 28 30 29 29 30 32 34 38 41 44 47 50 52 53 55 54 54 58 63 64 62 60 56 51 44 36 27 17 4 351 340 332 327 323 321 319 318 317 315 312 310 308 306 306 306 307 308 308 310 313 317 321 323 324 325 326 328 329 332 335 337 338 339 338 338 338 338 338 338 339 339 340 339 340 340 341
331 344 6 22 27 26 28 32 36 39 43 45 46 47 49 51 54 57 60 64 67 69 70 71 70 69 68 68 65 60 56 51 44 36 26 16 6 357 349 343 338 335 331 328 326 323 319 316 314 312 311 310 309 309 308 309 310 313 317 321 324 326 327 328 328 330 332 335 337 339 340 340 340 340 340 339 340 340 341 341 341 341 341 341 342
320 332 354 19 30 30 31 34 38 41 45 49 50 52 53 54 55 56 57 59 62 64 66 67 65 61 58 55 51 47 42 35 28 20 11 4 357 351 347 342 337 334 331 329 326 323 320 319 318 317 316 315 313 311 311 312 314 317 321 324 327 329 330 330 330 332 334 337 340 341 342 342 342 342 342 341 341 342 342 343 343 342 342 342 344
306 314 330 2 27 33 32 34 37 41 44 48 51 52 52 52 52 52 52 51 50 51 52 53 52 50 47 44 40 34 28 21 15 9 2 356 350 345 339 334 330 328 327 327 325 323 323 323 323 323 322 320 317 315 314 315 317 321 324 327 329 331 331 332 332 334 337 340 342 343 344 344 344 344 343 343 343 343 344 344 344 344 344 344 346
290 295 304 323 5 35 37 34 36 40 44 47 50 52 53 52 51 50 49 48 46 45 46 46 45 43 40 35 30 25 19 13 7 1 353 347 341 334 327 323 322 323 324 325 325 325 326 327 329 329 328 325 321 318 318 318 320 324 327 329 332 333 333 333 335 337 339 342 344 345 345 346 346 345 345 344 344 345 345 346 346 346 346 346 347
276 278 282 289 301 13 48 42 38 40 43 47 50 52 53 53 52 50 49 48 47 46 45 44 42 40 36 32 27 21 15 9 2 355 347 340 332 325 320 318 319 321 323 325 326 328 330 332 333 334 333 330 325 321 320 320 322 326 329 331 333 334 334 335 337 339 341 343 345 346 347 347 347 347 346 346 346 346 347 347 347 347 347 348 349